User: anonymous   Login
Location: Unspecified
(0.0000°N, 0.0000°E)
Time: 14:14:51
(UTC+00:00)
Language:

COSMOS 2498 - Orbit

View from above orbital plane
View from above orbital plane
View from above satellite
View from above satellite

Ground track
Ground track

The orbit data is extracted from the following two-line orbital elements,

1 39763U 14028C   18267.65507333 +.00000040 +00000-0 +21556-3 0  9995
2 39763 082.4420 076.7728 0021420 100.3536 259.9952 12.42873013196956
Epoch (UTC): 24 September 2018 15:43:18
Eccentricity: 0.0021420
inclination: 82.4420°
perigee height: 1477 km
apogee height: 1511 km
right ascension of ascending node: 76.7728°
argument of perigee: 100.3536°
revolutions per day: 12.42873013
mean anomaly at epoch: 259.9952°
orbit number at epoch: 19695

The dashed part of the orbit path shows where the satellite is in the earth's shadow,  

DLR